Orbital Elements at Epoch 2459200.5 (2020-Dec-17.0) TDB
Reference: JPL 18 (heliocentric ecliptic J2000)
Element | Value | Uncertainty (1-sigma) | Units |
e | .2186951911642057 | 6.714e-08 | |
a | 2.23295355061351 | 1.1292e-08 | au |
q | 1.744617347001297 | 1.5153e-07 | au |
i | 4.904709099898868 | 6.9098e-06 | deg |
node | 328.6906150671063 | 5.6575e-05 | deg |
peri | 356.3994652631345 | 5.7845e-05 | deg |
M | 249.957080331286 | 1.1037e-05 | deg |
tp | 2459573.043992324292 (2021-Dec-24.54399232) | 3.8375e-05 | TDB |
period | 1218.759349901866 3.34 | 9.245e-06 2.531e-08 | d yr |
n | .2953823492956071 | 2.2407e-09 | deg/d |
Q | 2.721289754225723 | 1.3762e-08 | au |
|
| | Orbit Determination Parameters
Additional Information
|